Location: Lac Lasalle
(46.0398°N, 74.1576°W)
Time: 00:01:00
(UTC-05:00)

SEEDS - Pass Details

Date: 17 December 2019
Orbit: 586 x 603 km, 97.5° (Epoch: 20 January)

Event Time Altitude Azimuth Distance (km) Brightness Sun altitude
Rises 06:24:56 0° 6° (N) 2,858 ? -11.3°
Reaches altitude 10° 06:27:11 10° 359° (N) 1,952 ? -10.9°
Maximum altitude 06:31:11 42° 289° (WNW) 864 ? -10.3°
Drops below altitude 10° 06:35:10 10° 219° (SW) 1,944 ? -9.7°
Sets 06:37:25 0° 212° (SSW) 2,843 ? -9.3°
